Location: Miles
(41.4492°N, 81.6087°W)
Time: 22:11:32
(UTC+00:00)

Vanguard 2 Rocket - Pass Details

Date: 28 September 2024
Orbit: 553 x 3298 km, 32.9° (Epoch: 12 October)

Event Time Altitude Azimuth Distance (km) Brightness Sun altitude
Rises 02:00:48 0° 204° (SSW) 2,748 - -31.0°
Reaches altitude 10° 02:04:07 10° 172° (S) 2,011 - -31.6°
Maximum altitude 02:06:01 12° 146° (SE) 1,983 - -31.9°
Drops below altitude 10° 02:08:11 10° 121° (ESE) 2,335 - -32.3°
Sets 02:12:48 0° 94° (E) 3,764 - -33.0°
